cover

 

Get it on iTunes StoreListen on Apple Music

Beatspace

#Trackname / Key / BPM / Publish dateArtists, Remixers / Label
1 110 bpm, 7A / D minor, 2018-07-02, Electronica,  0  11
2 115 bpm, 10B / D major, 2018-07-02, Electronica,  0  11
3 120 bpm, 8B / C major, 2018-07-02, Electronica,  0  11
4 120 bpm, 7B / F major, 2018-07-02, Electronica,  0  11
5 110 bpm, 9B / G major, 2018-07-02, Electronica,  0  11
6 130 bpm, 10B / D major, 2018-07-02, Electronica,  0  11
7 110 bpm, 6A / G minor, 2018-07-02, Electronica,  0  11
8 115 bpm, 8B / C major, 2018-07-02, Electronica,  0  11
9 115 bpm, 8A / A minor, 2018-07-02, Electronica,  0  11
10 110 bpm, 8A / A minor, 2018-07-02, Electronica,  0  11
11 90 bpm, 8B / C major, 2018-07-02, Electronica,  0  11
12 146 bpm, 2A / Eb minor, 2017-06-13, Psy-Trance,  0  14
13 146 bpm, 7A / D minor, 2017-06-13, Psy-Trance,  0  14
14 145 bpm, 2A / Eb minor, 2017-06-13, Psy-Trance,  1  14
15 146 bpm, 8A / A minor, 2017-06-13, Psy-Trance,  0  14
16 99 bpm, 2B / F# major, 2017-06-13, Psy-Trance,  0  14
17 148 bpm, 11A / F# minor, 2017-06-13, Psy-Trance,  0  14
18 150 bpm, 11B / A major, 2017-06-13, Psy-Trance,  0  14
19 150 bpm, 8A / A minor, 2017-06-13, Psy-Trance,  0  14
20 149 bpm, 8A / A minor, 2017-06-13, Psy-Trance,  0  14
21 152 bpm, 10B / D major, 2017-06-13, Psy-Trance,  0  14
22 150 bpm, 11B / A major, 2017-06-13, Psy-Trance,  0  14
23 149 bpm, 11B / A major, 2017-06-13, Psy-Trance,  0  14
24 149 bpm, 8A / A minor, 2017-06-13, Psy-Trance,  0  14
25 148 bpm, 12A / Db minor, 2017-06-13, Psy-Trance,  0  14
26 110 bpm, 1A / Ab minor, 2017-03-29, Electronica,  0  15
27 110 bpm, 8A / A minor, 2017-03-29, Electronica,  0  15
28 120 bpm, 8A / A minor, 2017-03-29, Electronica,  0  15
29 110 bpm, 8A / A minor, 2017-03-29, Electronica,  0  15
30 110 bpm, 7B / F major, 2017-03-29, Electronica,  0  15
31 110 bpm, 7B / F major, 2017-03-29, Electronica,  0  15
32 110 bpm, 7A / D minor, 2017-03-29, Electronica,  0  15
33 110 bpm, 11B / A major, 2017-03-29, Electronica,  0  15
34 110 bpm, 5A / C minor, 2017-03-29, Electronica,  0  15
35 110 bpm, 7A / D minor, 2017-03-29, Electronica,  0  15
36 110 bpm, 7B / F major, 2017-03-29, Electronica,  0  15
37 110 bpm, 6A / G minor, 2017-03-29, Electronica,  0  15
38 110 bpm, 4A / F minor, 2017-03-29, Electronica,  0  15
39 110 bpm, 8A / A minor, 2017-03-29, Electronica,  0  15
40 146 bpm, 7B / F major, 2017-03-29, Electronica,  0  15
41 145 bpm, 2B / F# major, 2016-07-08, Psy-Trance,  0  11
42 145 bpm, 8A / A minor, 2016-07-08, Psy-Trance,  0  11
43 146 bpm, 7A / D minor, 2016-07-08, Psy-Trance,  0  11
44 147 bpm, 7B / F major, 2016-07-08, Psy-Trance,  0  11
45 147 bpm, 7B / F major, 2016-07-08, Psy-Trance,  0  11
46 99 bpm, 8A / A minor, 2016-07-08, Psy-Trance,  0  11
47 99 bpm, 3A / Bb minor, 2016-07-08, Psy-Trance,  0  11
48 150 bpm, 6B / Bb major, 2016-07-08, Psy-Trance,  0  11
49 148 bpm, 7B / F major, 2016-07-08, Psy-Trance,  0  11
50 151 bpm, 8A / A minor, 2016-07-08, Psy-Trance,  0  11
51 146 bpm, 7A / D minor, 2016-07-08, Psy-Trance,  0  11
52 99 bpm, 7B / F major, 2016-04-30, Psy-Trance,  0  5
53 148 bpm, 11A / F# minor, 2016-04-30, Psy-Trance,  0  5
54 150 bpm, 11A / F# minor, 2016-04-30, Psy-Trance,  0  5
55 99 bpm, 12B / E major, 2016-04-30, Psy-Trance,  0  5
56 99 bpm, 8A / A minor, 2016-04-30, Psy-Trance,  0  5
57 99 bpm, 8A / A minor, 2016-01-09, Psy-Trance,  0  9
58 150 bpm, 8A / A minor, 2016-01-09, Psy-Trance,  0  9
59 152 bpm, 11B / A major, 2016-01-09, Psy-Trance,  0  9
60 154 bpm, 1B / B major, 2016-01-09, Psy-Trance,  0  9
61 152 bpm, 11B / A major, 2016-01-09, Psy-Trance,  0  9
62 152 bpm, 8A / A minor, 2016-01-09, Psy-Trance,  0  9
63 154 bpm, 9A / E minor, 2016-01-09, Psy-Trance,  0  9
64 152 bpm, 11B / A major, 2016-01-09, Psy-Trance,  0  9
65 153 bpm, 1A / Ab minor, 2016-01-09, Psy-Trance,  0  9
66 110 bpm, 7B / F major, 2015-11-28, Electronica,  0  10
67 120 bpm, 1A / Ab minor, 2015-11-28, Electronica,  0  10
68 160 bpm, 11B / A major, 2015-11-28, Electronica,  0  10
69 120 bpm, 8B / C major, 2015-11-28, Electronica,  0  10
70 110 bpm, 7B / F major, 2015-11-28, Electronica,  0  10
71 110 bpm, 12A / Db minor, 2015-11-28, Electronica,  0  10
72 125 bpm, 7B / F major, 2015-11-28, Electronica,  0  10
73 120 bpm, 8A / A minor, 2015-11-28, Electronica,  1  10
74 110 bpm, 6B / Bb major, 2015-11-28, Electronica,  0  10
75 120 bpm, 8A / A minor, 2015-11-28, Electronica,  0  10
76 148 bpm, 8A / A minor, 2015-11-14, Psy-Trance,  0  3
77 148 bpm, 8A / A minor, 2015-11-14, Psy-Trance,  0  3
78 148 bpm, 3A / Bb minor, 2015-11-14, Psy-Trance,  0  3
79 150 bpm, 6B / Bb major, 2015-10-12, Psy-Trance,  0  3
80 148 bpm, 6B / Bb major, 2015-10-12, Psy-Trance,  0  3
81 150 bpm, 8B / C major, 2015-10-12, Psy-Trance,  0  3
82 136 bpm, 10A / B minor, 2015-10-11, Psy-Trance,  0  2
83 137 bpm, 4A / F minor, 2015-10-11, Dubstep,  0  2
84 149 bpm, 11B / A major, 2015-09-24, Psy-Trance,  0  10
85 148 bpm, 5B / Eb major, 2015-09-24, Psy-Trance,  0  10
86 148 bpm, 11B / A major, 2015-09-24, Psy-Trance,  0  10
87 150 bpm, 7A / D minor, 2015-09-24, Psy-Trance,  0  10
88 150 bpm, 11B / A major, 2015-09-24, Psy-Trance,  0  10
89 152 bpm, 11B / A major, 2015-09-24, Psy-Trance,  0  10
90 150 bpm, 8A / A minor, 2015-09-24, Psy-Trance,  0  10
91 149 bpm, 11B / A major, 2015-09-24, Psy-Trance,  0  10
92 153 bpm, 9A / E minor, 2015-09-24, Psy-Trance,  0  10
93 99 bpm, 3A / Bb minor, 2015-09-24, Psy-Trance,  0  10
94 147 bpm, 12B / E major, 2015-06-01, Psy-Trance,  0  2
95 145 bpm, 6B / Bb major, 2015-06-01, Psy-Trance,  0  2
96 145 bpm, 6A / G minor, 2015-04-24, Psy-Trance,  0  2
97 145 bpm, 1B / B major, 2015-04-24, Psy-Trance,  0  2
98 99 bpm, 3A / Bb minor, 2015-04-08, Psy-Trance,  0  3
99 99 bpm, 8A / A minor, 2015-04-08, Psy-Trance,  0  3
100 150 bpm, 8A / A minor, 2015-04-08, Psy-Trance,  0  3
×

Sign in

Sign in to access your personalized pages, follow artists and labels you love, and create playlists fromyour favorite tracks.

Please wait...